Weather History for Quesnel, BC

Change the Weather History Date:

Thursday, September 13, 2012

  Actual Average Record
Temperature  
Mean Temperature 56 °F -  
Max Temperature 77 °F 61 °F 84 °F (2013)
Min Temperature 35 °F 39 °F 30 °F (2007)
Degree Days  
Heating Degree Days 9    
Growing Degree Days 6 (Base 50)    
Moisture  
Dew Point 39 °F    
Average Humidity 74    
Maximum Humidity 100    
Minimum Humidity 28    
Precipitation  
Precipitation 0.00 in - - ()
Sea Level Pressure  
Sea Level Pressure 30.27 in    
Wind  
Wind Speed 2 mph ()    
Max Wind Speed 12 mph    
Max Gust Speed -    
Visibility 7.7 miles    
Events      
Averages and records for this station are not official NWS values.
T = Trace of Precipitation, MM = Missing Value Source: Averaged Metar Reports

Daily Weather History Graph

Daily Weather History Graph

Search for Another Location

Airport:

Trip Planner

Search our weather history database for the weather conditions in past years. The results will help you decide how hot, cold, wet, or windy it might be!

Date:

Astronomy

Sep. 13, 2012 Rise Set
Actual Time 6:41 AM PDT 7:28 PM PDT
Civil Twilight 6:06 AM PDT 8:03 PM PDT
Nautical Twilight 5:24 AM PDT 8:45 PM PDT
Astronomical Twilight 4:39 AM PDT 9:30 PM PDT
Moon 3:51 AM PDT (9/13) 6:04 PM PDT (9/13)
Length of Visible Light 13h 57m
Length of Day
12h 47m
Waning Crescent, 7% of the Moon is Illuminated
Sep 13
Waning Crescent
Sep 15
New
Sep 22
First Quarter
Sep 29
Full
Oct 8
Last Quarter

Hourly Weather History & Observations

Time (PDT) Temp. Windchill Dew Point Humidity Pressure Visibility Wind Dir Wind Speed Gust Speed Precip Events Conditions
12:00 AM 46.4 °F - 41.0 °F 81% 30.34 in 9.0 mi Calm Calm - N/A   Mostly Cloudy
1:00 AM 44.6 °F - 39.2 °F 81% 30.35 in 9.0 mi Variable 2.3 mph - N/A   Clear
2:00 AM 41.0 °F 39.0 °F 39.2 °F 93% 30.35 in 9.0 mi Variable 3.5 mph - N/A   Clear
3:00 AM 41.0 °F - 39.2 °F 93% 30.35 in 9.0 mi Calm Calm - N/A   Clear
4:00 AM 39.2 °F - 37.4 °F 93% 30.35 in 9.0 mi Calm Calm - N/A   Clear
5:00 AM 37.4 °F - 35.6 °F 93% 30.36 in 9.0 mi Calm Calm - N/A   Clear
5:57 AM 37.4 °F - 35.6 °F 93% 30.36 in 5.0 mi Variable 2.3 mph - N/A   Clear
5:59 AM 35.6 °F - 35.6 °F 100% 30.36 in 2.2 mi Calm Calm - N/A   Clear
6:00 AM 37.4 °F - 35.6 °F 93% 30.36 in 2.2 mi Calm Calm - N/A   Clear
6:19 AM 37.4 °F - 35.6 °F 93% 30.36 in 4.0 mi Calm Calm - N/A   Clear
6:21 AM 37.4 °F - 37.4 °F 100% 30.36 in 9.0 mi Variable 2.3 mph - N/A   Clear
7:00 AM 37.4 °F - 37.4 °F 100% 30.37 in 9.0 mi Calm Calm - N/A   Clear
7:29 AM 35.6 °F - 33.8 °F 93% 30.38 in 2.2 mi Calm Calm - N/A   Clear
7:42 AM 35.6 °F - 35.6 °F 100% 30.38 in 5.0 mi Calm Calm - N/A   Clear
7:43 AM 35.6 °F - 35.6 °F 100% 30.38 in 7.0 mi Calm Calm - N/A   Clear
7:45 AM 35.6 °F - 35.6 °F 100% 30.38 in 4.0 mi Calm Calm - N/A   Clear
7:55 AM 37.4 °F - 37.4 °F 100% 30.37 in 9.0 mi Calm Calm - N/A   Clear
8:00 AM 39.2 °F - 39.2 °F 100% 30.37 in 9.0 mi Variable 2.3 mph - N/A   Clear
9:00 AM 48.2 °F - 41.0 °F 76% 30.36 in 9.0 mi South 5.8 mph - N/A   Clear
10:00 AM 55.4 °F - 42.8 °F 63% 30.33 in 9.0 mi SSW 5.8 mph - N/A   Clear
11:00 AM 59.0 °F - 41.0 °F 51% 30.30 in 9.0 mi SSE 8.1 mph - N/A   Clear
12:00 PM 62.6 °F - 39.2 °F 42% 30.27 in 9.0 mi SE 8.1 mph - N/A   Clear
1:00 PM 68.0 °F - 41.0 °F 37% 30.22 in - South 10.4 mph - N/A   Unknown
2:00 PM 69.8 °F - 41.0 °F 35% 30.19 in 9.0 mi South 6.9 mph - N/A   Clear
3:00 PM 73.4 °F - 41.0 °F 31% 30.14 in 9.0 mi South 10.4 mph - N/A   Clear
4:00 PM 75.2 °F - 41.0 °F 29% 30.11 in 9.0 mi SE 5.8 mph - N/A   Clear
5:00 PM 77.0 °F - 41.0 °F 28% 30.07 in 9.0 mi SSE 11.5 mph - N/A   Clear
6:00 PM 77.0 °F - 41.0 °F 28% 30.05 in 9.0 mi SE 8.1 mph - N/A   Clear
7:00 PM 75.2 °F - 41.0 °F 29% 30.04 in 9.0 mi SE 8.1 mph - N/A   Clear
8:00 PM 64.4 °F - 42.8 °F 45% 30.05 in 9.0 mi SSE 8.1 mph - N/A   Clear
9:00 PM 55.4 °F - 44.6 °F 67% 30.05 in 9.0 mi Calm Calm - N/A   Clear
10:00 PM 51.8 °F - 46.4 °F 82% 30.06 in 9.0 mi Calm Calm - N/A   Clear
11:00 PM 48.2 °F - 44.6 °F 87% 30.06 in 9.0 mi Variable 2.3 mph - N/A   Clear